#datetime,building,power
2024-03-13T00:00:00,mnr,9.61
2024-03-13T00:01:00,mnr,9.58
2024-03-13T00:02:00,mnr,10.27
2024-03-13T00:03:00,mnr,9.64
2024-03-13T00:04:00,mnr,11.06
2024-03-13T00:05:00,mnr,10.18
2024-03-13T00:06:00,mnr,10.14
2024-03-13T00:07:00,mnr,10.26
2024-03-13T00:08:00,mnr,9.98
2024-03-13T00:09:00,mnr,11.37
2024-03-13T00:10:00,mnr,10.28
2024-03-13T00:11:00,mnr,11.27
2024-03-13T00:12:00,mnr,11.56
2024-03-13T00:13:00,mnr,11.02
2024-03-13T00:14:00,mnr,10.99
2024-03-13T00:15:00,mnr,11.14
2024-03-13T00:16:00,mnr,9.99
2024-03-13T00:17:00,mnr,10.08
2024-03-13T00:18:00,mnr,9.52
2024-03-13T00:19:00,mnr,9.48
2024-03-13T00:20:00,mnr,8.93
2024-03-13T00:21:00,mnr,8.97
2024-03-13T00:22:00,mnr,8.93
2024-03-13T00:23:00,mnr,9.04
2024-03-13T00:24:00,mnr,8.88
2024-03-13T00:25:00,mnr,8.92
2024-03-13T00:26:00,mnr,8.93
2024-03-13T00:27:00,mnr,9.90
2024-03-13T00:28:00,mnr,9.34
2024-03-13T00:29:00,mnr,8.95
2024-03-13T00:30:00,mnr,7.86
2024-03-13T00:31:00,mnr,4.29
2024-03-13T00:32:00,mnr,8.20
2024-03-13T00:33:00,mnr,8.82
2024-03-13T00:34:00,mnr,8.10
2024-03-13T00:35:00,mnr,8.14
2024-03-13T00:36:00,mnr,8.33
2024-03-13T00:37:00,mnr,8.19
2024-03-13T00:38:00,mnr,8.62
2024-03-13T00:39:00,mnr,7.99
2024-03-13T00:40:00,mnr,9.06
2024-03-13T00:41:00,mnr,9.35
2024-03-13T00:42:00,mnr,9.10
2024-03-13T00:43:00,mnr,9.07
2024-03-13T00:44:00,mnr,8.33
2024-03-13T00:45:00,mnr,7.69
2024-03-13T00:46:00,mnr,6.71
2024-03-13T00:47:00,mnr,7.50
2024-03-13T00:48:00,mnr,7.06
2024-03-13T00:49:00,mnr,7.08
2024-03-13T00:50:00,mnr,7.14
2024-03-13T00:51:00,mnr,7.76
2024-03-13T00:52:00,mnr,7.53
2024-03-13T00:53:00,mnr,8.63
2024-03-13T00:54:00,mnr,8.13
2024-03-13T00:55:00,mnr,8.09
2024-03-13T00:56:00,mnr,7.95
2024-03-13T00:57:00,mnr,7.96
2024-03-13T00:58:00,mnr,6.89
2024-03-13T00:59:00,mnr,6.58
2024-03-13T01:00:00,mnr,7.32
2024-03-13T01:01:00,mnr,6.67
2024-03-13T01:02:00,mnr,6.90
2024-03-13T01:03:00,mnr,7.74
2024-03-13T01:04:00,mnr,7.76
2024-03-13T01:05:00,mnr,7.90
2024-03-13T01:06:00,mnr,7.88
2024-03-13T01:07:00,mnr,7.95
2024-03-13T01:08:00,mnr,7.81
2024-03-13T01:09:00,mnr,7.82
2024-03-13T01:10:00,mnr,7.81
2024-03-13T01:11:00,mnr,7.80
2024-03-13T01:12:00,mnr,7.76
2024-03-13T01:13:00,mnr,7.62
2024-03-13T01:14:00,mnr,8.82
2024-03-13T01:15:00,mnr,8.82
2024-03-13T01:16:00,mnr,7.94
2024-03-13T01:17:00,mnr,7.78
2024-03-13T01:18:00,mnr,7.63
2024-03-13T01:19:00,mnr,7.19
2024-03-13T01:20:00,mnr,7.20
2024-03-13T01:21:00,mnr,7.09
2024-03-13T01:22:00,mnr,6.97
2024-03-13T01:23:00,mnr,6.92
2024-03-13T01:24:00,mnr,7.01
2024-03-13T01:25:00,mnr,7.00
2024-03-13T01:26:00,mnr,7.00
2024-03-13T01:27:00,mnr,7.02
2024-03-13T01:28:00,mnr,7.01
2024-03-13T01:29:00,mnr,7.44
2024-03-13T01:30:00,mnr,7.00
2024-03-13T01:31:00,mnr,6.95
2024-03-13T01:32:00,mnr,6.95
2024-03-13T01:33:00,mnr,7.07
2024-03-13T01:34:00,mnr,8.85
2024-03-13T01:35:00,mnr,7.81
2024-03-13T01:36:00,mnr,8.44
2024-03-13T01:37:00,mnr,7.91
2024-03-13T01:38:00,mnr,7.85
2024-03-13T01:39:00,mnr,7.90
2024-03-13T01:40:00,mnr,8.17
2024-03-13T01:41:00,mnr,8.44
2024-03-13T01:42:00,mnr,8.17
2024-03-13T01:43:00,mnr,7.25
2024-03-13T01:44:00,mnr,7.21
2024-03-13T01:45:00,mnr,7.25
2024-03-13T01:46:00,mnr,6.83
2024-03-13T01:47:00,mnr,6.63
2024-03-13T01:48:00,mnr,7.24
2024-03-13T01:49:00,mnr,6.58
2024-03-13T01:50:00,mnr,6.27
2024-03-13T01:51:00,mnr,6.05
2024-03-13T01:52:00,mnr,6.71
2024-03-13T01:53:00,mnr,6.35
2024-03-13T01:54:00,mnr,6.18
2024-03-13T01:55:00,mnr,6.07
2024-03-13T01:56:00,mnr,6.02
2024-03-13T01:57:00,mnr,6.07
2024-03-13T01:58:00,mnr,6.63
2024-03-13T01:59:00,mnr,6.20
2024-03-13T02:00:00,mnr,6.04
2024-03-13T02:01:00,mnr,5.95
2024-03-13T02:02:00,mnr,6.28
2024-03-13T02:03:00,mnr,6.34
2024-03-13T02:04:00,mnr,6.33
2024-03-13T02:05:00,mnr,6.44
2024-03-13T02:06:00,mnr,6.26
2024-03-13T02:07:00,mnr,6.36
2024-03-13T02:08:00,mnr,6.24
2024-03-13T02:09:00,mnr,6.45
2024-03-13T02:10:00,mnr,5.67
2024-03-13T02:11:00,mnr,5.80
2024-03-13T02:12:00,mnr,5.89
2024-03-13T02:13:00,mnr,5.52
2024-03-13T02:14:00,mnr,5.21
2024-03-13T02:15:00,mnr,5.36
2024-03-13T02:16:00,mnr,4.69
2024-03-13T02:17:00,mnr,4.45
2024-03-13T02:18:00,mnr,4.38
2024-03-13T02:19:00,mnr,4.44
2024-03-13T02:20:00,mnr,4.46
2024-03-13T02:21:00,mnr,5.16
2024-03-13T02:22:00,mnr,4.52
2024-03-13T02:23:00,mnr,4.44
2024-03-13T02:24:00,mnr,4.44
2024-03-13T02:25:00,mnr,4.53
2024-03-13T02:26:00,mnr,4.65
2024-03-13T02:27:00,mnr,4.48
2024-03-13T02:28:00,mnr,4.48
2024-03-13T02:29:00,mnr,5.03
2024-03-13T02:30:00,mnr,4.49
2024-03-13T02:31:00,mnr,4.57
2024-03-13T02:32:00,mnr,5.32
2024-03-13T02:33:00,mnr,4.64
2024-03-13T02:34:00,mnr,4.57
2024-03-13T02:35:00,mnr,4.89
2024-03-13T02:36:00,mnr,4.65
2024-03-13T02:37:00,mnr,4.60
2024-03-13T02:38:00,mnr,4.77
2024-03-13T02:39:00,mnr,4.71
2024-03-13T02:40:00,mnr,5.30
2024-03-13T02:41:00,mnr,4.64
2024-03-13T02:42:00,mnr,4.65
2024-03-13T02:43:00,mnr,4.60
2024-03-13T02:44:00,mnr,4.56
2024-03-13T02:45:00,mnr,5.13
2024-03-13T02:46:00,mnr,4.63
2024-03-13T02:47:00,mnr,4.69
2024-03-13T02:48:00,mnr,5.30
2024-03-13T02:49:00,mnr,4.43
2024-03-13T02:50:00,mnr,4.46
2024-03-13T02:51:00,mnr,5.79
2024-03-13T02:52:00,mnr,4.94
2024-03-13T02:53:00,mnr,5.00
2024-03-13T02:54:00,mnr,5.02
2024-03-13T02:55:00,mnr,5.02
2024-03-13T02:56:00,mnr,4.99
2024-03-13T02:57:00,mnr,5.06
2024-03-13T02:58:00,mnr,5.00
2024-03-13T02:59:00,mnr,5.27
2024-03-13T03:00:00,mnr,5.08
2024-03-13T03:01:00,mnr,4.99
2024-03-13T03:02:00,mnr,5.01
2024-03-13T03:03:00,mnr,4.99
2024-03-13T03:04:00,mnr,4.98
2024-03-13T03:05:00,mnr,5.03
2024-03-13T03:06:00,mnr,5.05
2024-03-13T03:07:00,mnr,5.03
2024-03-13T03:08:00,mnr,5.00
2024-03-13T03:09:00,mnr,5.02
2024-03-13T03:10:00,mnr,6.21
2024-03-13T03:11:00,mnr,5.54
2024-03-13T03:12:00,mnr,4.83
2024-03-13T03:13:00,mnr,5.41
2024-03-13T03:14:00,mnr,4.71
2024-03-13T03:15:00,mnr,4.65
2024-03-13T03:16:00,mnr,5.40
2024-03-13T03:17:00,mnr,4.73
2024-03-13T03:18:00,mnr,4.65
2024-03-13T03:19:00,mnr,4.65
2024-03-13T03:20:00,mnr,4.71
2024-03-13T03:21:00,mnr,4.69
2024-03-13T03:22:00,mnr,4.95
2024-03-13T03:23:00,mnr,4.67
2024-03-13T03:24:00,mnr,4.59
2024-03-13T03:25:00,mnr,4.61
2024-03-13T03:26:00,mnr,4.53
2024-03-13T03:27:00,mnr,4.63
2024-03-13T03:28:00,mnr,4.60
2024-03-13T03:29:00,mnr,4.95
2024-03-13T03:30:00,mnr,4.70
2024-03-13T03:31:00,mnr,4.70
2024-03-13T03:32:00,mnr,5.34
2024-03-13T03:33:00,mnr,5.16
2024-03-13T03:34:00,mnr,4.64
2024-03-13T03:35:00,mnr,4.60
2024-03-13T03:36:00,mnr,4.59
2024-03-13T03:37:00,mnr,4.61
2024-03-13T03:38:00,mnr,4.59
2024-03-13T03:39:00,mnr,4.56
2024-03-13T03:40:00,mnr,4.62
2024-03-13T03:41:00,mnr,5.23
2024-03-13T03:42:00,mnr,4.61
2024-03-13T03:43:00,mnr,4.32
2024-03-13T03:44:00,mnr,4.20
2024-03-13T03:45:00,mnr,4.24
2024-03-13T03:46:00,mnr,4.21
2024-03-13T03:47:00,mnr,4.20
2024-03-13T03:48:00,mnr,4.77
2024-03-13T03:49:00,mnr,4.36
2024-03-13T03:50:00,mnr,4.22
2024-03-13T03:51:00,mnr,4.22
2024-03-13T03:52:00,mnr,4.24
2024-03-13T03:53:00,mnr,4.22
2024-03-13T03:54:00,mnr,4.20
2024-03-13T03:55:00,mnr,4.23
2024-03-13T03:56:00,mnr,4.33
2024-03-13T03:57:00,mnr,4.33
2024-03-13T03:58:00,mnr,4.21
2024-03-13T03:59:00,mnr,4.31
2024-03-13T04:00:00,mnr,4.45
2024-03-13T04:01:00,mnr,4.31
2024-03-13T04:02:00,mnr,4.23
2024-03-13T04:03:00,mnr,4.25
2024-03-13T04:04:00,mnr,4.18
2024-03-13T04:05:00,mnr,4.28
2024-03-13T04:06:00,mnr,4.26
2024-03-13T04:07:00,mnr,4.35
2024-03-13T04:08:00,mnr,4.40
2024-03-13T04:09:00,mnr,4.35
2024-03-13T04:10:00,mnr,4.38
2024-03-13T04:11:00,mnr,4.69
2024-03-13T04:12:00,mnr,4.37
2024-03-13T04:13:00,mnr,4.37
2024-03-13T04:14:00,mnr,4.35
2024-03-13T04:15:00,mnr,4.88
2024-03-13T04:16:00,mnr,7.12
2024-03-13T04:17:00,mnr,6.57
2024-03-13T04:18:00,mnr,6.66
2024-03-13T04:19:00,mnr,6.57
2024-03-13T04:20:00,mnr,7.48
2024-03-13T04:21:00,mnr,7.35
2024-03-13T04:22:00,mnr,8.14
2024-03-13T04:23:00,mnr,7.74
2024-03-13T04:24:00,mnr,7.77
2024-03-13T04:25:00,mnr,6.71
2024-03-13T04:26:00,mnr,6.68
2024-03-13T04:27:00,mnr,6.75
2024-03-13T04:28:00,mnr,6.73
2024-03-13T04:29:00,mnr,6.72
2024-03-13T04:30:00,mnr,6.69
2024-03-13T04:31:00,mnr,6.66
2024-03-13T04:32:00,mnr,6.92
2024-03-13T04:33:00,mnr,7.03
2024-03-13T04:34:00,mnr,7.28
2024-03-13T04:35:00,mnr,7.24
2024-03-13T04:36:00,mnr,7.26
2024-03-13T04:37:00,mnr,7.31
2024-03-13T04:38:00,mnr,7.23
2024-03-13T04:39:00,mnr,7.21
2024-03-13T04:40:00,mnr,7.38
2024-03-13T04:41:00,mnr,7.47
2024-03-13T04:42:00,mnr,7.28
2024-03-13T04:43:00,mnr,7.76
2024-03-13T04:44:00,mnr,7.35
2024-03-13T04:45:00,mnr,7.32
2024-03-13T04:46:00,mnr,8.62
2024-03-13T04:47:00,mnr,7.30
2024-03-13T04:48:00,mnr,7.27
2024-03-13T04:49:00,mnr,7.92
2024-03-13T04:50:00,mnr,7.26
2024-03-13T04:51:00,mnr,7.22
2024-03-13T04:52:00,mnr,7.26
2024-03-13T04:53:00,mnr,7.23
2024-03-13T04:54:00,mnr,7.22
2024-03-13T04:55:00,mnr,6.57
2024-03-13T04:56:00,mnr,6.60
2024-03-13T04:57:00,mnr,6.84
2024-03-13T04:58:00,mnr,6.13
2024-03-13T04:59:00,mnr,6.15
2024-03-13T05:00:00,mnr,6.26
2024-03-13T05:01:00,mnr,6.16
2024-03-13T05:02:00,mnr,6.13
2024-03-13T05:03:00,mnr,6.10
2024-03-13T05:04:00,mnr,5.93
2024-03-13T05:05:00,mnr,5.98
2024-03-13T05:06:00,mnr,6.25
2024-03-13T05:07:00,mnr,5.56
2024-03-13T05:08:00,mnr,5.47
2024-03-13T05:09:00,mnr,5.46
2024-03-13T05:10:00,mnr,5.58
2024-03-13T05:11:00,mnr,5.61
2024-03-13T05:12:00,mnr,6.11
2024-03-13T05:13:00,mnr,5.55
2024-03-13T05:14:00,mnr,5.65
2024-03-13T05:15:00,mnr,5.59
2024-03-13T05:16:00,mnr,5.55
2024-03-13T05:17:00,mnr,5.54
2024-03-13T05:18:00,mnr,6.26
2024-03-13T05:19:00,mnr,5.57
2024-03-13T05:20:00,mnr,6.20
2024-03-13T05:21:00,mnr,5.52
2024-03-13T05:22:00,mnr,6.40
2024-03-13T05:23:00,mnr,5.38
2024-03-13T05:24:00,mnr,5.37
2024-03-13T05:25:00,mnr,5.42
2024-03-13T05:26:00,mnr,5.36
2024-03-13T05:27:00,mnr,5.54
2024-03-13T05:28:00,mnr,5.74
2024-03-13T05:29:00,mnr,4.88
2024-03-13T05:30:00,mnr,4.93
2024-03-13T05:31:00,mnr,4.99
2024-03-13T05:32:00,mnr,5.02
2024-03-13T05:33:00,mnr,4.95
2024-03-13T05:34:00,mnr,4.98
2024-03-13T05:35:00,mnr,5.00
2024-03-13T05:36:00,mnr,4.91
2024-03-13T05:37:00,mnr,4.91
2024-03-13T05:38:00,mnr,4.95
2024-03-13T05:39:00,mnr,5.04
2024-03-13T05:40:00,mnr,5.05
2024-03-13T05:41:00,mnr,5.23
2024-03-13T05:42:00,mnr,5.56
2024-03-13T05:43:00,mnr,5.43
2024-03-13T05:44:00,mnr,5.10
2024-03-13T05:45:00,mnr,5.14
2024-03-13T05:46:00,mnr,5.46
2024-03-13T05:47:00,mnr,5.73
2024-03-13T05:48:00,mnr,5.24
2024-03-13T05:49:00,mnr,4.98
2024-03-13T05:50:00,mnr,4.98
2024-03-13T05:51:00,mnr,5.02
2024-03-13T05:52:00,mnr,5.60
2024-03-13T05:53:00,mnr,4.44
2024-03-13T05:54:00,mnr,4.45
2024-03-13T05:55:00,mnr,4.46
2024-03-13T05:56:00,mnr,4.41
2024-03-13T05:57:00,mnr,4.44
2024-03-13T05:58:00,mnr,4.40
2024-03-13T05:59:00,mnr,4.38
2024-03-13T06:00:00,mnr,4.46
2024-03-13T06:01:00,mnr,4.92
2024-03-13T06:02:00,mnr,6.15
2024-03-13T06:03:00,mnr,7.76
2024-03-13T06:04:00,mnr,8.27
2024-03-13T06:05:00,mnr,9.72
2024-03-13T06:06:00,mnr,12.53
2024-03-13T06:07:00,mnr,14.10
2024-03-13T06:08:00,mnr,12.29
2024-03-13T06:09:00,mnr,12.08
2024-03-13T06:10:00,mnr,12.59
2024-03-13T06:11:00,mnr,12.53
2024-03-13T06:12:00,mnr,12.54
2024-03-13T06:13:00,mnr,14.44
2024-03-13T06:14:00,mnr,13.36
2024-03-13T06:15:00,mnr,13.29
2024-03-13T06:16:00,mnr,13.56
2024-03-13T06:17:00,mnr,13.31
2024-03-13T06:18:00,mnr,13.35
2024-03-13T06:19:00,mnr,13.21
2024-03-13T06:20:00,mnr,13.42
2024-03-13T06:21:00,mnr,12.35
2024-03-13T06:22:00,mnr,14.02
2024-03-13T06:23:00,mnr,14.07
2024-03-13T06:24:00,mnr,14.09
2024-03-13T06:25:00,mnr,14.38
2024-03-13T06:26:00,mnr,10.78
2024-03-13T06:27:00,mnr,14.32
2024-03-13T06:28:00,mnr,14.52
2024-03-13T06:29:00,mnr,14.93
2024-03-13T06:30:00,mnr,15.77
2024-03-13T06:31:00,mnr,14.39
2024-03-13T06:32:00,mnr,14.44
2024-03-13T06:33:00,mnr,14.28
2024-03-13T06:34:00,mnr,14.29
2024-03-13T06:35:00,mnr,14.30
2024-03-13T06:36:00,mnr,15.12
2024-03-13T06:37:00,mnr,13.62
2024-03-13T06:38:00,mnr,13.74
2024-03-13T06:39:00,mnr,13.49
2024-03-13T06:40:00,mnr,13.49
2024-03-13T06:41:00,mnr,13.65
2024-03-13T06:42:00,mnr,13.51
2024-03-13T06:43:00,mnr,13.48
2024-03-13T06:44:00,mnr,13.44
2024-03-13T06:45:00,mnr,13.42
2024-03-13T06:46:00,mnr,14.06
2024-03-13T06:47:00,mnr,13.44
2024-03-13T06:48:00,mnr,13.35
2024-03-13T06:49:00,mnr,13.41
2024-03-13T06:50:00,mnr,14.92
2024-03-13T06:51:00,mnr,13.98
2024-03-13T06:52:00,mnr,14.38
2024-03-13T06:53:00,mnr,14.43
2024-03-13T06:54:00,mnr,15.79
2024-03-13T06:55:00,mnr,15.87
2024-03-13T06:56:00,mnr,14.22
2024-03-13T06:57:00,mnr,14.15
2024-03-13T06:58:00,mnr,14.33
2024-03-13T06:59:00,mnr,14.24
2024-03-13T07:00:00,mnr,14.04
2024-03-13T07:01:00,mnr,14.05
2024-03-13T07:02:00,mnr,14.09
2024-03-13T07:03:00,mnr,14.13
2024-03-13T07:04:00,mnr,14.16
2024-03-13T07:05:00,mnr,14.11
2024-03-13T07:06:00,mnr,14.24
2024-03-13T07:07:00,mnr,14.06
2024-03-13T07:08:00,mnr,13.97
2024-03-13T07:09:00,mnr,14.08
2024-03-13T07:10:00,mnr,14.79
2024-03-13T07:11:00,mnr,14.07
2024-03-13T07:12:00,mnr,14.00
2024-03-13T07:13:00,mnr,13.95
2024-03-13T07:14:00,mnr,14.32
2024-03-13T07:15:00,mnr,13.83
2024-03-13T07:16:00,mnr,14.66
2024-03-13T07:17:00,mnr,13.81
2024-03-13T07:18:00,mnr,13.95
2024-03-13T07:19:00,mnr,14.57
2024-03-13T07:20:00,mnr,13.86
2024-03-13T07:21:00,mnr,13.85
2024-03-13T07:22:00,mnr,13.82
2024-03-13T07:23:00,mnr,14.13
2024-03-13T07:24:00,mnr,13.77
2024-03-13T07:25:00,mnr,13.67
2024-03-13T07:26:00,mnr,13.70
2024-03-13T07:27:00,mnr,13.66
2024-03-13T07:28:00,mnr,13.61
2024-03-13T07:29:00,mnr,14.92
2024-03-13T07:30:00,mnr,13.79
2024-03-13T07:31:00,mnr,13.69
2024-03-13T07:32:00,mnr,13.71
2024-03-13T07:33:00,mnr,13.70
2024-03-13T07:34:00,mnr,13.93
2024-03-13T07:35:00,mnr,15.38
2024-03-13T07:36:00,mnr,15.93
2024-03-13T07:37:00,mnr,16.05
2024-03-13T07:38:00,mnr,15.87
2024-03-13T07:39:00,mnr,15.66
2024-03-13T07:40:00,mnr,15.09
2024-03-13T07:41:00,mnr,13.78
2024-03-13T07:42:00,mnr,13.70
2024-03-13T07:43:00,mnr,14.39
2024-03-13T07:44:00,mnr,13.99
2024-03-13T07:45:00,mnr,13.68
2024-03-13T07:46:00,mnr,13.83
2024-03-13T07:47:00,mnr,14.22
2024-03-13T07:48:00,mnr,14.04
2024-03-13T07:49:00,mnr,14.06
2024-03-13T07:50:00,mnr,14.00
2024-03-13T07:51:00,mnr,13.98
2024-03-13T07:52:00,mnr,13.73
2024-03-13T07:53:00,mnr,15.31
2024-03-13T07:54:00,mnr,15.69
2024-03-13T07:55:00,mnr,14.96
2024-03-13T07:56:00,mnr,14.70
2024-03-13T07:57:00,mnr,14.72
2024-03-13T07:58:00,mnr,14.75
2024-03-13T07:59:00,mnr,14.59
2024-03-13T08:00:00,mnr,14.69
2024-03-13T08:01:00,mnr,13.94
2024-03-13T08:02:00,mnr,12.57
2024-03-13T08:03:00,mnr,12.87
2024-03-13T08:04:00,mnr,12.42
2024-03-13T08:05:00,mnr,12.47
2024-03-13T08:06:00,mnr,12.29
2024-03-13T08:07:00,mnr,12.34
2024-03-13T08:08:00,mnr,12.33
2024-03-13T08:09:00,mnr,12.95
2024-03-13T08:10:00,mnr,12.27
2024-03-13T08:11:00,mnr,12.35
2024-03-13T08:12:00,mnr,13.29
2024-03-13T08:13:00,mnr,13.13
2024-03-13T08:14:00,mnr,14.06
2024-03-13T08:15:00,mnr,12.65
2024-03-13T08:16:00,mnr,12.67
2024-03-13T08:17:00,mnr,12.68
2024-03-13T08:18:00,mnr,12.65
2024-03-13T08:19:00,mnr,12.66
2024-03-13T08:20:00,mnr,12.73
2024-03-13T08:21:00,mnr,13.40
2024-03-13T08:22:00,mnr,12.81
2024-03-13T08:23:00,mnr,13.47
2024-03-13T08:24:00,mnr,12.82
2024-03-13T08:25:00,mnr,12.77
2024-03-13T08:26:00,mnr,13.58
2024-03-13T08:27:00,mnr,13.64
2024-03-13T08:28:00,mnr,13.77
2024-03-13T08:29:00,mnr,13.99
2024-03-13T08:30:00,mnr,14.57
2024-03-13T08:31:00,mnr,14.05
2024-03-13T08:32:00,mnr,14.25
2024-03-13T08:33:00,mnr,14.17
2024-03-13T08:34:00,mnr,14.53
2024-03-13T08:35:00,mnr,14.81
2024-03-13T08:36:00,mnr,15.23
2024-03-13T08:37:00,mnr,15.80
2024-03-13T08:38:00,mnr,15.80
2024-03-13T08:39:00,mnr,16.54
2024-03-13T08:40:00,mnr,15.33
2024-03-13T08:41:00,mnr,15.78
2024-03-13T08:42:00,mnr,15.60
2024-03-13T08:43:00,mnr,15.65
2024-03-13T08:44:00,mnr,15.39
2024-03-13T08:45:00,mnr,15.44
2024-03-13T08:46:00,mnr,15.62
2024-03-13T08:47:00,mnr,15.86
2024-03-13T08:48:00,mnr,15.64
2024-03-13T08:49:00,mnr,15.49
2024-03-13T08:50:00,mnr,15.24
2024-03-13T08:51:00,mnr,16.69
2024-03-13T08:52:00,mnr,16.71
2024-03-13T08:53:00,mnr,16.01
2024-03-13T08:54:00,mnr,14.81
2024-03-13T08:55:00,mnr,15.67
2024-03-13T08:56:00,mnr,16.39
2024-03-13T08:57:00,mnr,15.73
2024-03-13T08:58:00,mnr,17.22
2024-03-13T08:59:00,mnr,18.89
2024-03-13T09:00:00,mnr,18.94
2024-03-13T09:01:00,mnr,17.45
2024-03-13T09:02:00,mnr,17.37
2024-03-13T09:03:00,mnr,17.53
2024-03-13T09:04:00,mnr,12.78
2024-03-13T09:05:00,mnr,17.06
2024-03-13T09:06:00,mnr,16.64
2024-03-13T09:07:00,mnr,16.71
2024-03-13T09:08:00,mnr,16.76
2024-03-13T09:09:00,mnr,16.81
2024-03-13T09:10:00,mnr,16.62
2024-03-13T09:11:00,mnr,18.43
2024-03-13T09:12:00,mnr,16.67
2024-03-13T09:13:00,mnr,16.82
2024-03-13T09:14:00,mnr,16.83
2024-03-13T09:15:00,mnr,17.03
2024-03-13T09:16:00,mnr,17.12
2024-03-13T09:17:00,mnr,17.70
2024-03-13T09:18:00,mnr,18.29
2024-03-13T09:19:00,mnr,18.40
2024-03-13T09:20:00,mnr,18.31
2024-03-13T09:21:00,mnr,16.91
2024-03-13T09:22:00,mnr,16.86
2024-03-13T09:23:00,mnr,17.42
2024-03-13T09:24:00,mnr,17.10
2024-03-13T09:25:00,mnr,17.27
2024-03-13T09:26:00,mnr,16.91
2024-03-13T09:27:00,mnr,16.87
2024-03-13T09:28:00,mnr,17.53
2024-03-13T09:29:00,mnr,17.30
2024-03-13T09:30:00,mnr,17.55
2024-03-13T09:31:00,mnr,17.66
2024-03-13T09:32:00,mnr,19.10
2024-03-13T09:33:00,mnr,16.45
2024-03-13T09:34:00,mnr,16.45
2024-03-13T09:35:00,mnr,16.49
2024-03-13T09:36:00,mnr,16.78
2024-03-13T09:37:00,mnr,17.40
2024-03-13T09:38:00,mnr,16.98
2024-03-13T09:39:00,mnr,14.04
2024-03-13T09:40:00,mnr,17.67
2024-03-13T09:41:00,mnr,18.26
2024-03-13T09:42:00,mnr,18.99
2024-03-13T09:43:00,mnr,18.06
2024-03-13T09:44:00,mnr,18.58
2024-03-13T09:45:00,mnr,18.43
2024-03-13T09:46:00,mnr,18.06
2024-03-13T09:47:00,mnr,17.89
2024-03-13T09:48:00,mnr,14.39
2024-03-13T09:49:00,mnr,17.38
2024-03-13T09:50:00,mnr,17.17
2024-03-13T09:51:00,mnr,17.25
2024-03-13T09:52:00,mnr,18.15
2024-03-13T09:53:00,mnr,18.65
2024-03-13T09:54:00,mnr,17.23
2024-03-13T09:55:00,mnr,17.18
2024-03-13T09:56:00,mnr,18.38
2024-03-13T09:57:00,mnr,17.80
2024-03-13T09:58:00,mnr,17.52
2024-03-13T09:59:00,mnr,17.11
2024-03-13T10:00:00,mnr,17.13
2024-03-13T10:01:00,mnr,17.65
2024-03-13T10:02:00,mnr,17.16
2024-03-13T10:03:00,mnr,17.27
2024-03-13T10:04:00,mnr,17.32
2024-03-13T10:05:00,mnr,17.21
2024-03-13T10:06:00,mnr,17.68
2024-03-13T10:07:00,mnr,17.12
2024-03-13T10:08:00,mnr,16.84
2024-03-13T10:09:00,mnr,18.37
2024-03-13T10:10:00,mnr,18.77
2024-03-13T10:11:00,mnr,18.10
2024-03-13T10:12:00,mnr,19.48
2024-03-13T10:13:00,mnr,19.42
2024-03-13T10:14:00,mnr,19.72
2024-03-13T10:15:00,mnr,18.38
2024-03-13T10:16:00,mnr,18.17
2024-03-13T10:17:00,mnr,18.38
2024-03-13T10:18:00,mnr,18.26
2024-03-13T10:19:00,mnr,19.79
2024-03-13T10:20:00,mnr,18.80
2024-03-13T10:21:00,mnr,18.76
2024-03-13T10:22:00,mnr,18.78
2024-03-13T10:23:00,mnr,18.74
2024-03-13T10:24:00,mnr,18.88
2024-03-13T10:25:00,mnr,19.59
2024-03-13T10:26:00,mnr,18.93
2024-03-13T10:27:00,mnr,18.52
2024-03-13T10:28:00,mnr,18.38
2024-03-13T10:29:00,mnr,19.57
2024-03-13T10:30:00,mnr,18.46
2024-03-13T10:31:00,mnr,19.43
2024-03-13T10:32:00,mnr,18.41
2024-03-13T10:33:00,mnr,18.34
2024-03-13T10:34:00,mnr,18.71
2024-03-13T10:35:00,mnr,18.52
2024-03-13T10:36:00,mnr,18.63
2024-03-13T10:37:00,mnr,18.60
2024-03-13T10:38:00,mnr,18.24
2024-03-13T10:39:00,mnr,18.32
2024-03-13T10:40:00,mnr,14.02
2024-03-13T10:41:00,mnr,18.71
2024-03-13T10:42:00,mnr,17.64
2024-03-13T10:43:00,mnr,17.93
2024-03-13T10:44:00,mnr,17.77
2024-03-13T10:45:00,mnr,17.57
2024-03-13T10:46:00,mnr,17.43
2024-03-13T10:47:00,mnr,19.50
2024-03-13T10:48:00,mnr,19.02
2024-03-13T10:49:00,mnr,19.07
2024-03-13T10:50:00,mnr,19.58
2024-03-13T10:51:00,mnr,17.50
2024-03-13T10:52:00,mnr,17.48
2024-03-13T10:53:00,mnr,15.97
2024-03-13T10:54:00,mnr,19.35
2024-03-13T10:55:00,mnr,20.34
2024-03-13T10:56:00,mnr,18.43
2024-03-13T10:57:00,mnr,17.80
2024-03-13T10:58:00,mnr,18.07
2024-03-13T10:59:00,mnr,19.42
2024-03-13T11:00:00,mnr,19.55
2024-03-13T11:01:00,mnr,18.34
2024-03-13T11:02:00,mnr,18.75
2024-03-13T11:03:00,mnr,19.08
2024-03-13T11:04:00,mnr,20.34
2024-03-13T11:05:00,mnr,21.95
2024-03-13T11:06:00,mnr,30.92
2024-03-13T11:07:00,mnr,19.52
2024-03-13T11:08:00,mnr,19.80
2024-03-13T11:09:00,mnr,20.26
2024-03-13T11:10:00,mnr,20.99
2024-03-13T11:11:00,mnr,24.39
2024-03-13T11:12:00,mnr,19.27
2024-03-13T11:13:00,mnr,20.43
2024-03-13T11:14:00,mnr,18.85
2024-03-13T11:15:00,mnr,19.59
2024-03-13T11:16:00,mnr,20.42
2024-03-13T11:17:00,mnr,20.84
2024-03-13T11:18:00,mnr,20.45
2024-03-13T11:19:00,mnr,20.22
2024-03-13T11:20:00,mnr,20.33
2024-03-13T11:21:00,mnr,20.27
2024-03-13T11:22:00,mnr,20.23
2024-03-13T11:23:00,mnr,19.67
2024-03-13T11:24:00,mnr,21.28
2024-03-13T11:25:00,mnr,20.67
2024-03-13T11:26:00,mnr,20.72
2024-03-13T11:27:00,mnr,20.04
2024-03-13T11:28:00,mnr,20.19
2024-03-13T11:29:00,mnr,19.73
2024-03-13T11:30:00,mnr,20.59
2024-03-13T11:31:00,mnr,19.71
2024-03-13T11:32:00,mnr,19.75
2024-03-13T11:33:00,mnr,19.99
2024-03-13T11:34:00,mnr,19.70
2024-03-13T11:35:00,mnr,19.89
2024-03-13T11:36:00,mnr,19.70
2024-03-13T11:37:00,mnr,20.23
2024-03-13T11:38:00,mnr,20.04
2024-03-13T11:39:00,mnr,21.52
2024-03-13T11:40:00,mnr,19.78
2024-03-13T11:41:00,mnr,19.79
2024-03-13T11:42:00,mnr,20.74
2024-03-13T11:43:00,mnr,20.20
2024-03-13T11:44:00,mnr,18.92
2024-03-13T11:45:00,mnr,19.32
2024-03-13T11:46:00,mnr,20.64
2024-03-13T11:47:00,mnr,19.20
2024-03-13T11:48:00,mnr,19.76
2024-03-13T11:49:00,mnr,19.12
2024-03-13T11:50:00,mnr,19.17
2024-03-13T11:51:00,mnr,19.58
2024-03-13T11:52:00,mnr,19.06
2024-03-13T11:53:00,mnr,19.39
2024-03-13T11:54:00,mnr,22.38
2024-03-13T11:55:00,mnr,20.41
2024-03-13T11:56:00,mnr,19.76
2024-03-13T11:57:00,mnr,19.68
2024-03-13T11:58:00,mnr,24.53
2024-03-13T11:59:00,mnr,20.25
2024-03-13T12:00:00,mnr,19.95
2024-03-13T12:01:00,mnr,19.86
2024-03-13T12:02:00,mnr,21.82
2024-03-13T12:03:00,mnr,21.82
2024-03-13T12:04:00,mnr,21.21
2024-03-13T12:05:00,mnr,21.14
2024-03-13T12:06:00,mnr,19.67
2024-03-13T12:07:00,mnr,19.69
2024-03-13T12:08:00,mnr,19.75
2024-03-13T12:09:00,mnr,19.72
2024-03-13T12:10:00,mnr,15.95
2024-03-13T12:11:00,mnr,19.78
2024-03-13T12:12:00,mnr,18.92
2024-03-13T12:13:00,mnr,18.84
2024-03-13T12:14:00,mnr,18.47
2024-03-13T12:15:00,mnr,18.25
2024-03-13T12:16:00,mnr,17.77
2024-03-13T12:17:00,mnr,19.13
2024-03-13T12:18:00,mnr,17.59
2024-03-13T12:19:00,mnr,18.26
2024-03-13T12:20:00,mnr,17.45
2024-03-13T12:21:00,mnr,17.39
2024-03-13T12:22:00,mnr,19.46
2024-03-13T12:23:00,mnr,27.80
2024-03-13T12:24:00,mnr,17.79
2024-03-13T12:25:00,mnr,17.88
2024-03-13T12:26:00,mnr,17.88
2024-03-13T12:27:00,mnr,17.24
2024-03-13T12:28:00,mnr,17.24
2024-03-13T12:29:00,mnr,18.86
2024-03-13T12:30:00,mnr,17.38
2024-03-13T12:31:00,mnr,16.65
2024-03-13T12:32:00,mnr,17.36
2024-03-13T12:33:00,mnr,30.24
2024-03-13T12:34:00,mnr,20.18
2024-03-13T12:35:00,mnr,20.36
2024-03-13T12:36:00,mnr,20.63
2024-03-13T12:37:00,mnr,17.60
2024-03-13T12:38:00,mnr,19.20
2024-03-13T12:39:00,mnr,19.06
2024-03-13T12:40:00,mnr,17.78
2024-03-13T12:41:00,mnr,17.65
2024-03-13T12:42:00,mnr,17.68
2024-03-13T12:43:00,mnr,17.89
2024-03-13T12:44:00,mnr,17.46
2024-03-13T12:45:00,mnr,18.37
2024-03-13T12:46:00,mnr,18.11
2024-03-13T12:47:00,mnr,18.26
2024-03-13T12:48:00,mnr,18.06
2024-03-13T12:49:00,mnr,18.04
2024-03-13T12:50:00,mnr,17.75
2024-03-13T12:51:00,mnr,17.72
2024-03-13T12:52:00,mnr,19.67
2024-03-13T12:53:00,mnr,19.23
2024-03-13T12:54:00,mnr,19.27
2024-03-13T12:55:00,mnr,19.04
2024-03-13T12:56:00,mnr,19.77
2024-03-13T12:57:00,mnr,19.53
2024-03-13T12:58:00,mnr,17.59
2024-03-13T12:59:00,mnr,17.68
2024-03-13T13:00:00,mnr,17.54
2024-03-13T13:01:00,mnr,17.51
2024-03-13T13:02:00,mnr,18.16
2024-03-13T13:03:00,mnr,17.51
2024-03-13T13:04:00,mnr,18.07
2024-03-13T13:05:00,mnr,17.43
2024-03-13T13:06:00,mnr,26.14
2024-03-13T13:07:00,mnr,17.34
2024-03-13T13:08:00,mnr,19.38
2024-03-13T13:09:00,mnr,19.52
2024-03-13T13:10:00,mnr,17.42
2024-03-13T13:11:00,mnr,17.42
2024-03-13T13:12:00,mnr,17.45
2024-03-13T13:13:00,mnr,17.05
2024-03-13T13:14:00,mnr,17.24
2024-03-13T13:15:00,mnr,17.38
2024-03-13T13:16:00,mnr,17.27
2024-03-13T13:17:00,mnr,17.24
2024-03-13T13:18:00,mnr,18.68
2024-03-13T13:19:00,mnr,17.36
2024-03-13T13:20:00,mnr,17.66
2024-03-13T13:21:00,mnr,17.78
2024-03-13T13:22:00,mnr,17.65
2024-03-13T13:23:00,mnr,17.59
2024-03-13T13:24:00,mnr,17.99
2024-03-13T13:25:00,mnr,17.73
2024-03-13T13:26:00,mnr,17.57
2024-03-13T13:27:00,mnr,17.65
2024-03-13T13:28:00,mnr,17.12
2024-03-13T13:29:00,mnr,17.06